| time (UTC) | temp F | wind direction | speed MPH | gust MPH | rain 1hr in | rain 24hr in | rain mn in | humidity % | barometer mb |
| 20260504140502 | 52 | 352 | 0.0 | 0.0 | 0.00 | 0.00 | 0.00 | 87 | 1010.4 |
| 20260504130502 | 49 | 45 | 0.0 | 0.0 | 0.00 | 0.00 | 0.00 | 91 | 1010.0 |
| 20260504110506 | 51 | 95 | 0.0 | 0.0 | 0.00 | 0.00 | 0.00 | 89 | 1010.1 |
| 20260504100506 | 53 | 96 | 0.0 | 0.0 | 0.00 | 0.00 | 0.00 | 86 | 1009.9 |
| 20260504081518 | 56 | 143 | 0.0 | 1.0 | 0.00 | 0.00 | 0.00 | 82 | 1009.7 |
| 20260504081510 | 56 | 143 | 0.0 | 1.0 | 0.00 | 0.00 | 0.00 | 83 | 1010.1 |
| 20260504081007 | 55 | 143 | 0.0 | 1.0 | 0.00 | 0.00 | 0.00 | 82 | 1009.6 |
| 20260504080507 | 55 | 143 | 0.0 | 1.0 | 0.00 | 0.00 | 0.00 | 82 | 1009.7 |
| 20260504050510 | 64 | 41 | 0.0 | 2.0 | 0.00 | 0.00 | 0.00 | 62 | 1009.5 |
| 20260504045509 | 65 | 42 | 0.0 | 1.0 | 0.00 | 0.00 | 0.00 | 60 | 1009.5 |
| 20260504045012 | 66 | 43 | 0.0 | 0.0 | 0.00 | 0.00 | 0.00 | 59 | 1009.6 |
| 20260504044552 | 66 | 42 | 0.0 | 1.0 | 0.00 | 0.00 | 0.00 | 58 | 1010.0 |
| 20260504044529 | 67 | 42 | 0.0 | 2.0 | 0.00 | 0.00 | 0.00 | 57 | 1009.6 |
| 20260504044009 | 67 | 42 | 0.0 | 2.0 | 0.00 | 0.00 | 0.00 | 56 | 1009.6 |
| 20260504043511 | 67 | 42 | 1.0 | 2.0 | 0.00 | 0.00 | 0.00 | 55 | 1009.6 |
| 20260504043100 | 68 | 39 | 1.0 | 3.0 | 0.00 | 0.00 | 0.00 | 55 | 1009.9 |
| 20260504043033 | 68 | 39 | 1.0 | 3.0 | 0.00 | 0.00 | 0.00 | 54 | 1009.5 |
| 20260504042509 | 68 | 39 | 2.0 | 3.0 | 0.00 | 0.00 | 0.00 | 53 | 1009.5 |
| 20260504042009 | 68 | 75 | 0.0 | 3.0 | 0.00 | 0.00 | 0.00 | 54 | 1009.5 |
| 20260504041551 | 69 | 88 | 1.0 | 3.0 | 0.00 | 0.00 | 0.00 | 54 | 1009.8 |
| 20260504041519 | 69 | 57 | 1.0 | 3.0 | 0.00 | 0.00 | 0.00 | 53 | 1009.5 |
| 20260504041010 | 70 | 134 | 0.0 | 1.0 | 0.00 | 0.00 | 0.00 | 54 | 1009.4 |
| 20260504040510 | 71 | 134 | 0.0 | 1.0 | 0.00 | 0.00 | 0.00 | 51 | 1009.4 |
| 20260504040025 | 71 | 134 | 0.0 | 1.0 | 0.00 | 0.00 | 0.00 | 51 | 1009.4 |
| 20260504035509 | 72 | 111 | 0.0 | 3.0 | 0.00 | 0.00 | 0.00 | 51 | 1009.3 |
| 20260504035010 | 72 | 113 | 0.0 | 3.0 | 0.00 | 0.00 | 0.00 | 50 | 1009.2 |
| 20260504034558 | 72 | 127 | 0.0 | 2.0 | 0.00 | 0.00 | 0.00 | 51 | 1009.6 |
| 20260504034526 | 73 | 127 | 0.0 | 3.0 | 0.00 | 0.00 | 0.00 | 50 | 1009.1 |
| 20260504034010 | 73 | 122 | 0.0 | 3.0 | 0.00 | 0.00 | 0.00 | 49 | 1009.1 |
| 20260504033507 | 74 | 136 | 0.0 | 2.0 | 0.00 | 0.00 | 0.00 | 48 | 1009.1 |
| 20260504033053 | 75 | 131 | 0.0 | 1.0 | 0.00 | 0.00 | 0.00 | 48 | 1009.5 |
| 20260504033027 | 75 | 131 | 0.0 | 1.0 | 0.00 | 0.00 | 0.00 | 47 | 1009.0 |
| 20260504032510 | 76 | 142 | 0.0 | 1.0 | 0.00 | 0.00 | 0.00 | 45 | 1009.0 |
| 20260504032010 | 77 | 143 | 0.0 | 1.0 | 0.00 | 0.00 | 0.00 | 44 | 1009.1 |
| 20260504031549 | 78 | 139 | 0.0 | 1.0 | 0.00 | 0.00 | 0.00 | 43 | 1009.5 |
| 20260504031528 | 78 | 139 | 0.0 | 1.0 | 0.00 | 0.00 | 0.00 | 43 | 1009.2 |
| 20260504031006 | 79 | 139 | 0.0 | 1.0 | 0.00 | 0.00 | 0.00 | 41 | 1009.2 |
| 20260504030510 | 80 | 139 | 0.0 | 1.0 | 0.00 | 0.00 | 0.00 | 38 | 1009.2 |
| 20260504030049 | 81 | 146 | 0.0 | 1.0 | 0.00 | 0.00 | 0.00 | 36 | 1009.6 |
| 20260504030022 | 82 | 202 | 0.0 | 1.0 | 0.00 | 0.00 | 0.00 | 34 | 1009.2 |
| 20260504025507 | 83 | 202 | 0.0 | 1.0 | 0.00 | 0.00 | 0.00 | 32 | 1009.2 |
| 20260504025014 | 83 | 260 | 0.0 | 2.0 | 0.00 | 0.00 | 0.00 | 30 | 1009.2 |
| 20260504024546 | 83 | 269 | 0.0 | 2.0 | 0.00 | 0.00 | 0.00 | 30 | 1009.6 |
| 20260504024525 | 83 | 269 | 0.0 | 2.0 | 0.00 | 0.00 | 0.00 | 29 | 1009.2 |
| 20260504024008 | 83 | 260 | 0.0 | 2.0 | 0.00 | 0.00 | 0.00 | 28 | 1009.2 |
| 20260504023509 | 83 | 263 | 0.0 | 3.0 | 0.00 | 0.00 | 0.00 | 28 | 1009.1 |
| 20260504023045 | 83 | 251 | 0.0 | 3.0 | 0.00 | 0.00 | 0.00 | 28 | 1009.6 |
| 20260504023029 | 83 | 251 | 0.0 | 4.0 | 0.00 | 0.00 | 0.00 | 28 | 1009.1 |
| 20260504022510 | 83 | 224 | 0.0 | 4.0 | 0.00 | 0.00 | 0.00 | 27 | 1009.1 |
| 20260504022011 | 83 | 244 | 1.0 | 3.0 | 0.00 | 0.00 | 0.00 | 27 | 1009.2 |
| 20260504021545 | 84 | 264 | 0.0 | 6.0 | 0.00 | 0.00 | 0.00 | 29 | 1009.6 |
| 20260504021535 | 84 | 288 | 0.0 | 8.0 | 0.00 | 0.00 | 0.00 | 29 | 1009.2 |
| 20260504021010 | 83 | 274 | 1.0 | 8.0 | 0.00 | 0.00 | 0.00 | 29 | 1009.2 |
| 20260504020510 | 84 | 272 | 1.0 | 4.0 | 0.00 | 0.00 | 0.00 | 30 | 1009.3 |
| 20260504020053 | 84 | 280 | 1.0 | 4.0 | 0.00 | 0.00 | 0.00 | 29 | 1009.7 |
| 20260504020036 | 85 | 281 | 2.0 | 4.0 | 0.00 | 0.00 | 0.00 | 29 | 1009.3 |
| 20260504015507 | 85 | 283 | 0.0 | 4.0 | 0.00 | 0.00 | 0.00 | 30 | 1009.3 |
| 20260504015008 | 84 | 278 | 0.0 | 4.0 | 0.00 | 0.00 | 0.00 | 30 | 1009.3 |
| 20260504014549 | 84 | 271 | 1.0 | 4.0 | 0.00 | 0.00 | 0.00 | 29 | 1009.9 |
| 20260504014525 | 84 | 217 | 2.0 | 4.0 | 0.00 | 0.00 | 0.00 | 29 | 1009.4 |
| 20260504014009 | 85 | 290 | 0.0 | 4.0 | 0.00 | 0.00 | 0.00 | 28 | 1009.5 |
| 20260504013513 | 85 | 276 | 1.0 | 4.0 | 0.00 | 0.00 | 0.00 | 28 | 1009.5 |
| 20260504013039 | 84 | 290 | 0.0 | 7.0 | 0.00 | 0.00 | 0.00 | 29 | 1010.0 |
| 20260504013034 | 84 | 290 | 1.0 | 7.0 | 0.00 | 0.00 | 0.00 | 28 | 1009.6 |
| 20260504012509 | 83 | 288 | 2.0 | 7.0 | 0.00 | 0.00 | 0.00 | 27 | 1009.7 |
| 20260504012010 | 84 | 159 | 3.0 | 7.0 | 0.00 | 0.00 | 0.00 | 28 | 1009.8 |
| 20260504011537 | 83 | 282 | 1.0 | 6.0 | 0.00 | 0.00 | 0.00 | 28 | 1010.1 |
| 20260504011527 | 83 | 330 | 2.0 | 6.0 | 0.00 | 0.00 | 0.00 | 28 | 1009.8 |
| 20260504011009 | 84 | 251 | 1.0 | 8.0 | 0.00 | 0.00 | 0.00 | 28 | 1009.9 |
| 20260504010510 | 84 | 272 | 2.0 | 8.0 | 0.00 | 0.00 | 0.00 | 27 | 1009.9 |
| 20260504010036 | 84 | 223 | 4.0 | 8.0 | 0.00 | 0.00 | 0.00 | 27 | 1010.3 |
| 20260504010030 | 84 | 181 | 3.0 | 8.0 | 0.00 | 0.00 | 0.00 | 28 | 1009.9 |
| 20260504005510 | 84 | 190 | 2.0 | 10.0 | 0.00 | 0.00 | 0.00 | 28 | 1010.0 |
| 20260504005003 | 84 | 179 | 3.0 | 10.0 | 0.00 | 0.00 | 0.00 | 28 | 1010.1 |
| 20260504004535 | 84 | 269 | 3.0 | 10.0 | 0.00 | 0.00 | 0.00 | 28 | 1010.5 |
| 20260504004511 | 84 | 289 | 3.0 | 9.0 | 0.00 | 0.00 | 0.00 | 28 | 1010.1 |
| 20260504004003 | 84 | 232 | 5.0 | 9.0 | 0.00 | 0.00 | 0.00 | 30 | 1010.2 |
| 20260504003502 | 84 | 278 | 3.0 | 8.0 | 0.00 | 0.00 | 0.00 | 30 | 1010.3 |
| 20260504003031 | 84 | 269 | 1.0 | 6.0 | 0.00 | 0.00 | 0.00 | 31 | 1010.6 |
| 20260504003004 | 84 | 168 | 1.0 | 6.0 | 0.00 | 0.00 | 0.00 | 31 | 1010.3 |
| 20260504002502 | 84 | 179 | 3.0 | 7.0 | 0.00 | 0.00 | 0.00 | 31 | 1010.3 |
| 20260504002003 | 84 | 246 | 2.0 | 9.0 | 0.00 | 0.00 | 0.00 | 30 | 1010.3 |
| 20260504001534 | 83 | 271 | 2.0 | 9.0 | 0.00 | 0.00 | 0.00 | 32 | 1010.7 |
| 20260504001527 | 83 | 282 | 4.0 | 9.0 | 0.00 | 0.00 | 0.00 | 32 | 1010.3 |
| 20260504001005 | 84 | 262 | 3.0 | 8.0 | 0.00 | 0.00 | 0.00 | 32 | 1010.3 |
| 20260504000508 | 84 | 250 | 4.0 | 7.0 | 0.00 | 0.00 | 0.00 | 32 | 1010.4 |
| 20260504000029 | 84 | 283 | 3.0 | 7.0 | 0.00 | 0.00 | 0.00 | 33 | 1010.9 |
| 20260504000015 | 84 | 289 | 3.0 | 7.0 | 0.00 | 0.00 | 0.00 | 33 | 1010.4 |
| 20260503235505 | 84 | 264 | 2.0 | 7.0 | 0.00 | 0.00 | 0.00 | 32 | 1010.4 |
| 20260503235008 | 84 | 290 | 4.0 | 7.0 | 0.00 | 0.00 | 0.00 | 32 | 1010.4 |
| 20260503234527 | 84 | 285 | 1.0 | 7.0 | 0.00 | 0.00 | 0.00 | 33 | 1010.9 |
| 20260503234520 | 84 | 252 | 1.0 | 7.0 | 0.00 | 0.00 | 0.00 | 32 | 1010.4 |
| 20260503234009 | 84 | 265 | 4.0 | 7.0 | 0.00 | 0.00 | 0.00 | 31 | 1010.4 |
| 20260503233504 | 84 | 266 | 0.0 | 6.0 | 0.00 | 0.00 | 0.00 | 33 | 1010.5 |
| 20260503233024 | 84 | 279 | 2.0 | 6.0 | 0.00 | 0.00 | 0.00 | 33 | 1011.1 |
| 20260503233004 | 84 | 288 | 2.0 | 6.0 | 0.00 | 0.00 | 0.00 | 32 | 1010.5 |
| 20260503232502 | 84 | 288 | 2.0 | 7.0 | 0.00 | 0.00 | 0.00 | 32 | 1010.6 |
| 20260503232002 | 84 | 270 | 2.0 | 7.0 | 0.00 | 0.00 | 0.00 | 33 | 1010.7 |
| 20260503231523 | 84 | 248 | 3.0 | 6.0 | 0.00 | 0.00 | 0.00 | 35 | 1011.3 |
| 20260503231506 | 84 | 302 | 3.0 | 6.0 | 0.00 | 0.00 | 0.00 | 34 | 1010.9 |
| 20260503231004 | 83 | 294 | 1.0 | 8.0 | 0.00 | 0.00 | 0.00 | 35 | 1010.9 |
| 20260503230508 | 83 | 293 | 2.0 | 8.0 | 0.00 | 0.00 | 0.00 | 35 | 1011.0 |
| 20260503230018 | 83 | 268 | 3.0 | 8.0 | 0.00 | 0.00 | 0.00 | 35 | 1011.4 |
| 20260503230014 | 83 | 284 | 3.0 | 8.0 | 0.00 | 0.00 | 0.00 | 35 | 1011.0 |
| 20260503225508 | 84 | 279 | 3.0 | 8.0 | 0.00 | 0.00 | 0.00 | 35 | 1011.1 |
| 20260503225006 | 83 | 183 | 1.0 | 6.0 | 0.00 | 0.00 | 0.00 | 37 | 1011.2 |
| 20260503224518 | 83 | 285 | 3.0 | 7.0 | 0.00 | 0.00 | 0.00 | 38 | 1011.4 |
| 20260503224515 | 83 | 297 | 3.0 | 7.0 | 0.00 | 0.00 | 0.00 | 38 | 1011.7 |
| 20260503224008 | 83 | 229 | 2.0 | 8.0 | 0.00 | 0.00 | 0.00 | 36 | 1011.4 |
| 20260503223508 | 83 | 259 | 3.0 | 8.0 | 0.00 | 0.00 | 0.00 | 35 | 1011.5 |
| 20260503223020 | 84 | 210 | 3.0 | 7.0 | 0.00 | 0.00 | 0.00 | 36 | 1011.6 |
| 20260503223013 | 84 | 265 | 3.0 | 7.0 | 0.00 | 0.00 | 0.00 | 36 | 1011.9 |
| 20260503222510 | 83 | 276 | 2.0 | 7.0 | 0.00 | 0.00 | 0.00 | 38 | 1011.6 |
| 20260503222003 | 83 | 138 | 1.0 | 7.0 | 0.00 | 0.00 | 0.00 | 40 | 1011.7 |
| 20260503221510 | 82 | 276 | 3.0 | 8.0 | 0.00 | 0.00 | 0.00 | 41 | 1012.1 |
| 20260503221503 | 82 | 271 | 3.0 | 8.0 | 0.00 | 0.00 | 0.00 | 41 | 1011.7 |
| 20260503221005 | 82 | 284 | 4.0 | 8.0 | 0.00 | 0.00 | 0.00 | 42 | 1011.9 |
| 20260503220507 | 82 | 191 | 3.0 | 6.0 | 0.00 | 0.00 | 0.00 | 42 | 1011.9 |
| 20260503220021 | 83 | 300 | 2.0 | 6.0 | 0.00 | 0.00 | 0.00 | 42 | 1012.0 |
| 20260503220008 | 83 | 240 | 1.0 | 6.0 | 0.00 | 0.00 | 0.00 | 43 | 1012.3 |
| 20260503215507 | 83 | 271 | 1.0 | 6.0 | 0.00 | 0.00 | 0.00 | 42 | 1012.1 |
| 20260503215011 | 82 | 261 | 2.0 | 6.0 | 0.00 | 0.00 | 0.00 | 41 | 1012.2 |
| 20260503214528 | 83 | 238 | 3.0 | 5.0 | 0.00 | 0.00 | 0.00 | 43 | 1012.2 |
| 20260503214518 | 83 | 276 | 2.0 | 5.0 | 0.00 | 0.00 | 0.00 | 43 | 1012.5 |
| 20260503214006 | 84 | 262 | 1.0 | 5.0 | 0.00 | 0.00 | 0.00 | 41 | 1012.3 |
| 20260503213506 | 83 | 231 | 0.0 | 5.0 | 0.00 | 0.00 | 0.00 | 41 | 1012.3 |
| 20260503213029 | 82 | 283 | 0.0 | 6.0 | 0.00 | 0.00 | 0.00 | 41 | 1012.3 |
| 20260503213002 | 82 | 283 | 0.0 | 6.0 | 0.00 | 0.00 | 0.00 | 42 | 1012.7 |
| 20260503212511 | 83 | 243 | 2.0 | 8.0 | 0.00 | 0.00 | 0.00 | 41 | 1012.4 |
| 20260503212013 | 82 | 198 | 1.0 | 8.0 | 0.00 | 0.00 | 0.00 | 42 | 1012.4 |
| 20260503211613 | 82 | 276 | 2.0 | 8.0 | 0.00 | 0.00 | 0.00 | 41 | 1012.8 |
| 20260503211521 | 82 | 300 | 0.0 | 6.0 | 0.00 | 0.00 | 0.00 | 42 | 1012.4 |
| 20260503211009 | 80 | 276 | 2.0 | 6.0 | 0.00 | 0.00 | 0.00 | 41 | 1012.5 |
| 20260503210507 | 80 | 206 | 1.0 | 6.0 | 0.00 | 0.00 | 0.00 | 42 | 1012.6 |
| 20260503210055 | 79 | 268 | 2.0 | 7.0 | 0.00 | 0.00 | 0.00 | 43 | 1013.0 |
| 20260503210011 | 79 | 290 | 2.0 | 7.0 | 0.00 | 0.00 | 0.00 | 43 | 1012.7 |
| 20260503205507 | 80 | 282 | 4.0 | 7.0 | 0.00 | 0.00 | 0.00 | 43 | 1012.7 |
| 20260503205010 | 80 | 259 | 3.0 | 7.0 | 0.00 | 0.00 | 0.00 | 42 | 1012.8 |
| 20260503204553 | 80 | 297 | 4.0 | 7.0 | 0.00 | 0.00 | 0.00 | 43 | 1013.3 |
| 20260503204523 | 80 | 285 | 3.0 | 7.0 | 0.00 | 0.00 | 0.00 | 43 | 1012.8 |
| 20260503204006 | 79 | 206 | 1.0 | 9.0 | 0.00 | 0.00 | 0.00 | 45 | 1012.9 |
| 20260503203510 | 79 | 281 | 2.0 | 9.0 | 0.00 | 0.00 | 0.00 | 45 | 1012.9 |
| 20260503203053 | 79 | 288 | 3.0 | 9.0 | 0.00 | 0.00 | 0.00 | 44 | 1013.4 |
| 20260503203018 | 79 | 274 | 3.0 | 9.0 | 0.00 | 0.00 | 0.00 | 44 | 1013.0 |
| 20260503202511 | 80 | 276 | 3.0 | 5.0 | 0.00 | 0.00 | 0.00 | 42 | 1013.0 |
| 20260503202011 | 80 | 275 | 1.0 | 4.0 | 0.00 | 0.00 | 0.00 | 43 | 1013.0 |
| 20260503201551 | 80 | 271 | 1.0 | 4.0 | 0.00 | 0.00 | 0.00 | 42 | 1013.5 |
| 20260503201522 | 81 | 274 | 0.0 | 4.0 | 0.00 | 0.00 | 0.00 | 42 | 1013.0 |
| 20260503201007 | 80 | 181 | 1.0 | 4.0 | 0.00 | 0.00 | 0.00 | 43 | 1013.1 |
| 20260503200510 | 80 | 169 | 2.0 | 7.0 | 0.00 | 0.00 | 0.00 | 42 | 1013.3 |
| 20260503200056 | 79 | 214 | 0.0 | 7.0 | 0.00 | 0.00 | 0.00 | 43 | 1013.9 |
| 20260503200026 | 79 | 176 | 0.0 | 7.0 | 0.00 | 0.00 | 0.00 | 43 | 1013.3 |
| 20260503195510 | 78 | 196 | 4.0 | 7.0 | 0.00 | 0.00 | 0.00 | 42 | 1013.4 |
| 20260503195003 | 77 | 150 | 0.0 | 7.0 | 0.00 | 0.00 | 0.00 | 43 | 1013.4 |
| 20260503194545 | 76 | 255 | 2.0 | 7.0 | 0.00 | 0.00 | 0.00 | 41 | 1014.1 |
| 20260503194507 | 76 | 284 | 2.0 | 7.0 | 0.00 | 0.00 | 0.00 | 41 | 1013.4 |
| 20260503194005 | 76 | 319 | 2.0 | 6.0 | 0.00 | 0.00 | 0.00 | 44 | 1013.6 |
| 20260503193507 | 76 | 283 | 2.0 | 7.0 | 0.00 | 0.00 | 0.00 | 43 | 1013.7 |
| 20260503193052 | 76 | 226 | 2.0 | 7.0 | 0.00 | 0.00 | 0.00 | 43 | 1014.3 |
| 20260503193015 | 75 | 281 | 3.0 | 7.0 | 0.00 | 0.00 | 0.00 | 42 | 1013.8 |
| 20260503192507 | 76 | 300 | 2.0 | 5.0 | 0.00 | 0.00 | 0.00 | 44 | 1013.8 |
| 20260503192007 | 77 | 259 | 2.0 | 5.0 | 0.00 | 0.00 | 0.00 | 43 | 1014.0 |
| 20260503191544 | 77 | 297 | 2.0 | 6.0 | 0.00 | 0.00 | 0.00 | 43 | 1014.4 |
| 20260503191518 | 77 | 285 | 3.0 | 6.0 | 0.00 | 0.00 | 0.00 | 44 | 1014.0 |
| 20260503191010 | 76 | 271 | 2.0 | 6.0 | 0.00 | 0.00 | 0.00 | 45 | 1014.0 |
| 20260503190507 | 76 | 247 | 1.0 | 4.0 | 0.00 | 0.00 | 0.00 | 47 | 1014.0 |
| 20260503190047 | 76 | 248 | 1.0 | 6.0 | 0.00 | 0.00 | 0.00 | 49 | 1014.5 |
| 20260503190031 | 76 | 259 | 0.0 | 6.0 | 0.00 | 0.00 | 0.00 | 48 | 1014.0 |
| 20260503185508 | 76 | 322 | 1.0 | 6.0 | 0.00 | 0.00 | 0.00 | 47 | 1014.1 |
| 20260503185011 | 75 | 297 | 0.0 | 4.0 | 0.00 | 0.00 | 0.00 | 48 | 1014.2 |
| 20260503184543 | 75 | 290 | 0.0 | 4.0 | 0.00 | 0.00 | 0.00 | 49 | 1014.7 |
| 20260503184526 | 75 | 326 | 1.0 | 4.0 | 0.00 | 0.00 | 0.00 | 50 | 1014.2 |
| 20260503184009 | 74 | 284 | 1.0 | 6.0 | 0.00 | 0.00 | 0.00 | 50 | 1014.2 |
| 20260503183505 | 74 | 283 | 0.0 | 6.0 | 0.00 | 0.00 | 0.00 | 51 | 1014.2 |
| 20260503183040 | 74 | 276 | 2.0 | 6.0 | 0.00 | 0.00 | 0.00 | 50 | 1014.8 |
| 20260503183015 | 74 | 208 | 2.0 | 5.0 | 0.00 | 0.00 | 0.00 | 50 | 1014.3 |
| 20260503182507 | 75 | 282 | 2.0 | 5.0 | 0.00 | 0.00 | 0.00 | 46 | 1014.3 |
| 20260503182009 | 75 | 316 | 0.0 | 4.0 | 0.00 | 0.00 | 0.00 | 46 | 1014.3 |
| 20260503181538 | 75 | 65 | 1.0 | 4.0 | 0.00 | 0.00 | 0.00 | 47 | 1014.9 |
| 20260503181009 | 75 | 110 | 1.0 | 5.0 | 0.00 | 0.00 | 0.00 | 44 | 1014.3 |
| 20260503180507 | 75 | 224 | 1.0 | 4.0 | 0.00 | 0.00 | 0.00 | 46 | 1014.3 |
| 20260503180046 | 74 | 207 | 1.0 | 4.0 | 0.00 | 0.00 | 0.00 | 49 | 1014.9 |
| 20260503180032 | 74 | 208 | 0.0 | 4.0 | 0.00 | 0.00 | 0.00 | 48 | 1014.4 |
| 20260503175515 | 74 | 321 | 2.0 | 4.0 | 0.00 | 0.00 | 0.00 | 47 | 1014.4 |
| 20260503175007 | 73 | 171 | 1.0 | 5.0 | 0.00 | 0.00 | 0.00 | 48 | 1014.5 |
| 20260503174541 | 72 | 172 | 0.0 | 5.0 | 0.00 | 0.00 | 0.00 | 51 | 1015.1 |
| 20260503174525 | 72 | 167 | 0.0 | 5.0 | 0.00 | 0.00 | 0.00 | 51 | 1014.5 |
| 20260503174011 | 72 | 172 | 1.0 | 4.0 | 0.00 | 0.00 | 0.00 | 50 | 1014.6 |
| 20260503173034 | 73 | 199 | 1.0 | 4.0 | 0.00 | 0.00 | 0.00 | 53 | 1015.3 |
| 20260503173029 | 73 | 193 | 2.0 | 4.0 | 0.00 | 0.00 | 0.00 | 52 | 1014.8 |
| 20260503172512 | 72 | 158 | 0.0 | 3.0 | 0.00 | 0.00 | 0.00 | 55 | 1014.8 |
| 20260503172005 | 71 | 167 | 1.0 | 4.0 | 0.00 | 0.00 | 0.00 | 53 | 1014.9 |
| 20260503171524 | 72 | 180 | 0.0 | 4.0 | 0.00 | 0.00 | 0.00 | 55 | 1015.4 |
| 20260503171005 | 73 | 205 | 0.0 | 2.0 | 0.00 | 0.00 | 0.00 | 53 | 1015.0 |
| 20260503170509 | 72 | 151 | 0.0 | 2.0 | 0.00 | 0.00 | 0.00 | 57 | 1015.0 |
| 20260503151008 | 58 | 199 | 0.0 | 2.0 | 0.00 | 0.00 | 0.00 | 79 | 1015.6 |
| 20260503150107 | 58 | 159 | 0.0 | 0.0 | 0.00 | 0.00 | 0.00 | 78 | 1016.1 |